Погода в Каргале

Россия / Томская область     56°37′11″N   83°57′29″E
темп.,
°C
ветер,
м/с
пор.,
м/с
влажн.,
%
обл.,
%
осадки,
мм/ч
давл.,
гПа
погр.,
м
14 июня, пн
пн1401:00+9с24940 0.6 101667
04:00+7с26955 0.0 1017106
07:00+9с2690100 0.0 1019170
10:00+16с36455 0.0 1020974
13:00+19с45365 0.0 10201576
16:00+21с45354 0.0 10191632
19:00+21ссв25454 0.0 10191064
22:00+14ююз1165100 0.0 101911
15 июня, вт
вт1501:00+12юз2370100 0.0 101950
04:00+11ююз3576100 0.0 101877
07:00+14ююз257832 0.0 1017121
10:00+20юз346423 0.0 1016459
13:00+25зюз464735 0.0 10151548
16:00+27з364288 0.0 10122381
19:00+26сз2553100 0.0 1012796
22:00+17юв259416 1.1 1013108
16 июня, ср
ср1601:00+16ююз369669 1.3 1012143
04:00+16зюз37955 0.0 1011158
07:00+16юз27935 0.0 1012192
10:00+23юз3565100 0.0 1012579
13:00+26юз4652100 0.0 10111231
16:00+28юз5742100 0.0 10092293
19:00+26з485710 0.0 10081431
22:00+19зюз368920 0.9 1008100
17 июня, чт
чт1701:00+16зюз239488 1.8 100854
04:00+15ююз369799 0.0 100798
07:00+17ююз2696100 0.2 1007209
10:00+21юз347426 0.0 1007741
13:00+22з46846 3.5 1006909
16:00+25юз365220 1.9 10051474
19:00+24сз35512 2.0 10041236
22:00+16ссв22833 0.0 100512
18 июня, пт
пт1801:00+14ю01920 0.0 100510
04:00+13ююз22950 0.0 100515
07:00+16юз13800 0.0 1004127
10:00+21зюз23560 0.0 1003588
13:00+24зюз344191 0.0 10031849
16:00+26ююз253690 0.0 10022005
19:00+25ююв235189 0.0 1001305
22:00+19ююв226843 0.0 100024